Helicity
1 21 17 34 51 66 66 65 149 233 28 200 272 131 41 -18 31 68 106 114 41 39 174 152 113 104 97 86 13 24 22 24 8 11 6 6 -26 14 7 11 31 72 74 30 23 51 16 42 97 76 51 95 75 89
-0 1 1 56 70 56 52 115 224 190 46 108 270 93 48 38 58 73 101 118 108 65 116 129 116 147 115 106 57 115 -32 15 -5 -15 -28 -42 -35 -33 4 23 -15 54 33 18 25 34 23 13 18 92 76 80 67 73
8 15 25 85 62 82 165 284 -29 -53 84 187 75 50 22 45 67 51 109 90 115 120 157 126 168 218 168 139 98 21 34 -18 -27 -10 -21 -30 -10 -25 -12 1 4 -2 15 30 38 19 55 73 62 64 64 117 105 99
-7 8 58 71 62 102 142 284 8 43 107 50 66 31 35 46 58 87 94 93 83 87 71 108 122 116 176 111 65 44 10 33 5 -25 -50 -49 -19 -16 7 -11 6 30 18 60 69 83 132 111 68 39 38 44 47 97
2 32 60 64 70 104 172 127 76 38 49 59 135 77 83 66 66 140 117 101 77 24 64 97 127 134 112 85 99 97 67 41 -9 -47 -64 -45 -66 -30 -27 -21 -14 34 50 91 76 74 112 92 92 72 47 28 20 10
3 48 60 66 98 136 255 27 26 28 114 84 64 79 92 67 35 88 100 72 40 40 96 88 79 100 97 92 96 99 79 37 -21 -41 -43 -63 -62 -37 -7 5 6 13 32 49 46 56 60 58 72 47 38 41 46 38
6 64 62 66 115 201 197 26 27 58 158 158 85 97 142 119 89 91 81 88 74 48 50 75 85 79 96 80 71 64 50 -4 -33 -39 -27 -14 -18 -11 -7 2 29 44 38 35 31 47 43 47 45 32 25 36 63 92
17 82 66 69 95 192 274 36 70 107 115 141 100 91 131 111 70 83 131 122 64 55 62 53 74 91 73 60 23 30 -19 -23 -21 -27 -19 1 12 23 14 19 42 62 60 48 61 59 58 56 49 44 46 41 44 68
33 85 58 66 89 143 253 58 107 133 101 88 141 132 194 154 145 105 124 123 85 60 59 55 56 44 52 50 27 18 7 11 -12 4 5 17 28 29 22 42 59 67 75 83 76 69 84 85 52 35 29 28 36 50
38 76 48 54 60 64 278 119 155 176 120 70 206 211 140 140 124 76 71 101 84 56 59 62 91 74 59 72 51 33 26 30 36 24 35 37 30 9 33 51 55 85 96 108 89 69 74 68 59 55 46 45 45 44
29 67 53 55 53 129 68 228 187 135 165 241 223 190 144 206 122 74 96 92 97 72 65 75 83 77 68 82 72 36 34 44 59 35 74 51 46 55 64 74 81 89 90 82 84 87 89 91 79 76 68 65 63 63
36 67 55 69 67 199 397 243 196 365 337 205 147 263 185 160 98 102 133 117 97 65 69 93 90 125 117 106 98 54 66 67 55 58 73 62 63 72 93 88 76 75 81 85 91 90 92 91 79 78 75 71 73 80
50 55 54 177 207 308 311 202 200 227 287 287 343 237 210 168 179 91 67 119 95 61 64 100 149 116 133 112 104 96 94 85 87 77 77 66 87 93 95 83 73 74 84 89 87 89 81 90 79 82 79 83 91 90
57 64 115 182 214 255 203 257 219 326 446 360 286 240 182 142 141 88 110 85 75 67 100 148 178 129 142 153 112 123 104 113 103 98 72 68 48 98 90 62 82 74 75 81 82 82 77 80 86 93 95 93 111 101
42 73 149 154 205 225 272 216 285 383 440 418 279 165 195 136 132 99 127 167 109 -2 108 140 164 131 131 105 91 114 101 97 66 57 67 76 96 138 108 80 74 78 80 78 90 89 86 86 86 88 96 94 107 106
67 91 115 125 221 269 269 284 353 413 410 314 245 225 198 174 145 139 143 156 139 135 141 102 95 102 103 119 134 115 144 103 84 88 82 116 126 125 108 81 74 82 90 87 91 103 94 91 86 87 85 90 88 96
114 155 114 257 256 323 356 407 504 478 409 334 280 224 197 193 125 133 167 105 64 178 91 56 67 77 92 115 117 107 99 84 68 66 95 104 140 129 96 78 85 97 93 93 104 105 104 102 90 95 87 92 80 76
191 176 200 444 556 450 469 387 331 304 346 357 286 226 178 154 186 179 178 223 187 152 96 59 63 83 84 101 102 55 55 81 68 60 88 124 137 123 102 90 93 99 99 100 105 105 115 104 94 108 93 85 76 71
132 216 311 484 450 357 298 260 242 260 390 385 313 219 214 196 233 169 247 264 195 161 135 116 52 28 66 80 67 50 40 51 55 70 100 124 128 108 96 99 95 102 106 109 110 111 111 112 112 108 103 99 103 87
42 264 390 351 371 332 282 220 264 289 278 335 315 275 244 187 218 241 303 261 197 189 125 46 45 59 66 55 54 53 42 51 87 98 95 108 119 121 106 103 103 102 100 98 104 100 113 103 112 109 102 109 111 94
184 448 473 548 551 336 221 304 363 301 330 346 347 430 347 262 256 215 197 187 205 123 58 59 63 84 94 99 97 95 111 103 84 89 108 109 120 115 112 109 111 106 108 102 101 101 103 100 100 110 105 106 105 93
435 660 705 635 463 307 199 298 350 330 383 406 405 437 365 354 276 202 216 189 122 83 74 88 83 88 115 135 139 142 127 124 127 116 102 101 118 125 128 117 111 107 96 98 105 103 97 104 112 110 111 114 98 93
632 694 642 394 280 235 263 403 457 430 314 394 445 377 379 369 293 309 224 125 85 73 79 89 111 146 168 170 159 130 111 114 115 115 114 111 108 99 94 91 93 97 95 111 98 99 99 78 88 90 105 114 129 117
672 487 326 258 234 235 350 454 459 442 384 461 393 375 405 370 353 229 100 59 59 57 82 99 128 143 134 124 109 113 116 131 135 118 109 120 112 100 99 96 95 99 84 81 86 89 95 94 83 89 102 116 135 135
370 306 226 247 258 318 402 490 477 422 428 416 439 424 388 336 172 101 44 62 97 96 80 75 92 95 90 109 130 129 117 133 140 126 94 94 107 111 110 104 105 115 112 116 109 104 106 100 99 95 93 104 111 124
375 314 280 275 342 321 336 370 370 402 525 488 345 295 273 183 127 44 51 81 60 63 75 85 112 134 132 126 138 130 120 109 121 108 89 96 106 115 116 123 130 126 140 118 109 105 103 100 94 97 99 106 102 112
282 267 305 372 402 432 428 447 490 423 406 248 285 257 189 103 67 64 94 84 94 85 93 105 118 136 145 134 125 109 95 74 70 82 88 89 97 113 134 141 133 116 117 109 99 92 87 89 96 101 96 99 112 121
236 253 256 346 438 457 424 424 407 369 237 174 228 174 84 47 72 99 131 123 124 158 205 208 187 154 138 118 97 86 75 86 100 118 136 159 170 179 188 158 121 113 116 107 108 116 123 121 114 109 109 101 93 125
294 271 372 491 442 448 415 380 233 160 147 168 183 176 145 145 148 138 118 112 133 162 190 182 172 143 142 128 120 113 112 118 128 136 129 120 137 133 142 123 134 143 142 140 132 130 117 113 111 111 109 102 95 102
330 255 285 456 388 348 368 311 286 294 286 246 211 234 216 197 165 159 134 131 129 134 136 129 111 110 105 109 119 114 109 107 107 121 121 112 102 111 120 129 138 153 166 158 144 139 133 142 133 142 131 117 112 102
286 261 268 257 252 377 411 348 373 356 339 324 309 248 225 172 158 158 146 133 134 136 139 147 156 132 132 120 108 109 101 92 100 107 101 102 108 112 125 137 155 166 159 144 133 127 121 121 119 113 105 100 101 105
233 213 270 412 360 368 379 409 421 379 355 300 284 219 182 155 141 116 100 108 131 133 115 107 121 93 74 81 81 68 63 82 77 76 75 91 107 121 138 151 159 158 137 123 118 118 113 104 97 97 87 75 78 76
334 406 454 416 349 291 321 314 291 242 231 199 178 150 139 128 121 97 97 88 98 79 71 69 81 82 71 62 59 60 72 61 57 62 68 63 55 69 97 119 109 106 97 91 83 85 84 84 82 74 70 67 73 84
Wind_Speed
54 36 48 49 50 51 49 48 51 50 52 34 42 39 40 42 45 42 37 31 34 32 25 29 32 35 36 39 46 49 44 41 43 39 37 38 37 38 37 38 38 37 35 29 26 21 14 14 20 27 37 31 31 34
45 46 44 46 47 47 46 47 53 51 48 37 36 42 46 31 47 40 42 25 16 23 28 19 13 18 26 35 15 40 40 40 41 39 37 37 36 36 37 37 34 35 32 30 29 23 25 24 18 25 25 29 34 38
33 48 45 48 46 45 42 37 30 33 25 31 41 46 29 33 40 37 37 34 23 25 22 23 26 26 21 27 33 13 37 42 41 39 39 37 36 35 33 30 31 29 30 29 29 25 25 24 22 20 15 21 37 43
26 49 48 47 44 42 39 39 33 22 29 29 35 43 25 19 21 29 34 34 23 23 23 29 27 25 28 21 20 22 14 18 27 35 35 34 34 32 31 29 26 27 27 25 23 25 27 24 21 17 15 14 11 33
32 52 50 48 46 44 41 35 28 27 31 27 32 29 23 14 18 18 21 27 25 24 23 27 24 21 19 14 12 12 12 18 22 30 32 32 32 31 28 26 21 23 22 21 19 20 20 19 17 18 14 10 12 15
50 55 55 52 48 45 41 44 38 30 28 24 28 28 18 16 21 27 32 30 27 20 18 22 24 21 15 11 12 13 15 18 22 29 30 28 27 28 28 24 22 22 22 21 19 21 20 19 18 20 18 19 21 25
57 62 59 55 52 45 37 42 39 25 19 30 23 21 15 21 29 31 35 33 30 22 23 18 22 27 23 18 17 17 19 20 24 26 27 26 25 24 22 20 24 24 25 26 25 24 21 21 19 24 25 25 28 32
63 68 64 60 59 52 42 43 33 27 27 29 23 19 14 10 18 21 25 28 29 23 24 22 24 25 28 19 14 22 19 22 25 25 26 24 23 22 17 17 22 22 24 24 25 26 24 24 23 26 27 31 31 33
70 75 71 68 66 63 53 69 31 33 37 27 22 20 28 34 35 31 30 31 28 31 27 25 16 18 22 15 16 18 21 21 24 22 22 23 20 16 17 18 17 18 19 20 23 24 26 26 26 26 30 32 33 36
77 80 74 70 73 74 65 63 38 37 40 30 38 40 46 43 29 30 33 38 37 35 30 25 23 16 9 13 16 17 21 20 22 20 23 19 14 8 13 15 14 15 18 20 22 23 23 26 27 28 31 32 32 37
81 80 76 73 78 84 79 54 49 44 44 46 43 43 40 32 33 34 40 41 39 36 31 22 19 4 18 13 13 17 20 21 21 19 20 23 20 18 14 14 16 16 18 20 22 25 25 26 26 30 32 33 33 36
74 74 69 66 75 71 68 59 55 53 58 44 25 26 27 38 41 40 38 38 34 34 26 18 11 15 17 19 20 16 22 22 21 20 23 24 19 18 17 15 16 17 19 21 23 23 24 26 28 30 32 34 35 35
69 67 59 57 66 65 63 62 61 44 37 36 34 40 42 45 55 56 46 37 32 24 18 6 6 17 19 22 21 21 21 20 19 22 24 21 22 17 17 16 17 19 21 24 25 26 26 27 29 31 35 35 35 35
71 68 62 68 64 66 64 57 54 57 50 46 46 48 56 52 56 51 45 31 29 13 13 7 9 18 18 18 19 21 22 20 22 24 24 24 13 13 15 15 17 18 21 24 27 28 28 30 30 32 34 35 36 35
76 73 69 79 79 68 59 59 58 51 54 50 45 57 59 47 41 42 33 27 23 10 7 3 16 19 17 17 17 19 20 22 20 25 25 22 16 13 13 14 16 20 25 27 29 29 30 34 37 38 36 36 35 34
76 72 72 93 81 66 59 58 54 52 51 46 43 45 47 42 38 38 32 18 16 11 12 21 19 20 21 15 16 13 15 21 26 23 23 21 18 16 16 16 18 25 28 29 29 29 32 35 40 40 42 40 37 34
78 79 79 88 76 64 56 59 54 51 56 52 52 40 39 39 33 39 31 25 19 17 19 20 19 20 17 24 22 16 20 23 20 21 20 18 20 21 21 21 24 29 31 31 31 31 33 38 43 44 45 44 37 35
82 70 83 87 75 62 57 59 54 54 59 50 50 40 37 38 35 29 34 27 28 25 19 23 20 23 24 26 29 21 18 20 19 19 20 20 22 26 29 32 33 33 34 33 32 34 37 42 45 45 44 43 40 36
80 79 88 91 76 61 56 64 58 59 55 48 45 37 34 32 33 29 24 25 23 23 14 23 28 28 30 25 24 19 16 17 19 21 23 23 27 35 39 40 39 38 37 35 36 37 40 41 42 43 41 39 36 33
81 86 86 85 66 57 54 54 56 53 60 53 47 40 31 29 31 26 24 25 23 23 27 30 32 34 30 23 21 18 16 17 21 26 30 32 36 39 43 45 45 43 40 40 40 41 43 46 43 40 37 35 33 31
90 91 79 70 63 50 49 55 58 56 51 51 43 41 31 26 24 23 25 28 30 33 33 34 36 31 28 22 21 20 21 23 26 30 34 38 40 43 44 45 46 44 42 42 44 46 46 46 44 41 37 34 30 28
88 84 70 61 61 51 50 50 55 47 49 47 43 39 33 32 29 26 29 31 36 36 34 34 29 20 17 20 24 27 28 29 32 33 33 36 40 43 45 47 47 47 46 46 48 50 50 49 47 43 37 32 30 28
81 74 67 61 62 56 58 52 55 50 50 50 41 38 38 34 30 30 31 36 39 38 36 33 27 24 22 25 28 30 31 29 30 31 34 37 39 41 44 46 46 48 51 53 53 53 53 52 49 45 39 34 30 29
70 63 66 67 59 59 59 59 52 48 44 50 47 42 36 30 27 34 37 37 37 32 27 24 21 22 26 28 28 27 25 26 29 33 36 39 45 45 46 47 48 49 52 55 57 57 58 58 55 50 43 36 32 31
66 65 57 65 58 62 65 63 59 54 57 49 45 43 35 30 36 36 37 33 28 23 19 20 19 20 21 22 22 22 24 27 33 40 41 41 44 46 49 49 50 49 56 61 63 65 65 63 61 57 50 42 38 35
62 55 61 65 67 65 63 65 63 58 53 48 43 31 30 32 37 39 32 22 19 18 12 8 10 16 16 18 20 24 29 31 38 44 45 41 45 50 54 56 58 57 58 63 65 68 68 65 62 60 57 52 45 39
62 63 57 51 56 55 49 45 47 48 47 47 42 35 33 36 38 29 18 18 18 16 12 8 10 14 16 20 26 30 34 37 40 44 45 47 48 48 49 55 60 59 64 66 67 67 68 65 63 59 56 51 49 48
54 53 65 56 53 52 52 49 49 50 44 33 28 37 32 32 28 17 16 15 11 11 12 15 18 20 23 28 32 36 38 45 47 47 47 50 50 49 52 58 62 66 67 67 67 66 65 64 62 58 56 53 53 57
50 48 51 50 47 46 47 49 43 36 30 27 29 26 20 20 17 13 9 8 8 9 11 15 22 27 29 33 39 41 45 50 55 60 62 63 61 58 59 68 70 72 72 72 71 68 64 60 57 55 53 51 51 53
46 41 44 48 51 50 46 40 34 29 24 23 20 15 13 12 15 16 11 10 9 11 17 22 24 30 34 38 44 47 48 50 50 53 60 63 63 66 70 73 76 75 74 73 72 68 65 62 61 63 64 63 61 58
36 36 36 33 37 33 28 21 14 13 16 16 13 9 10 12 15 18 17 18 17 19 23 27 30 32 35 40 46 52 54 48 48 54 59 62 65 69 72 73 74 73 71 70 70 69 69 70 69 69 69 69 70 68
32 33 34 33 28 20 18 17 15 14 15 13 14 15 15 17 19 21 25 24 23 22 23 22 27 32 35 40 43 45 48 52 54 58 62 65 68 70 70 69 67 68 69 69 69 69 71 71 71 70 70 71 73 74
20 17 17 17 20 19 15 12 14 15 16 17 19 20 21 22 25 25 26 23 21 20 20 24 30 35 39 42 44 47 48 52 57 60 63 65 66 67 67 67 65 65 64 63 63 61 61 62 63 63 64 64 66 67
Wind_Direction
352 282 263 250 246 250 256 255 254 244 218 210 196 182 192 202 213 220 220 233 227 227 236 237 234 229 224 219 129 137 126 154 135 112 116 113 108 118 111 115 111 111 110 117 124 122 144 119 335 322 317 323 323 321
2 279 264 251 251 254 258 261 252 226 203 209 192 192 204 195 211 218 214 225 237 235 226 240 257 255 240 228 260 213 128 119 128 115 115 115 111 113 108 100 119 105 115 104 117 115 120 118 101 353 329 319 317 318
7 272 257 253 257 264 266 278 226 202 210 200 198 201 180 201 214 221 214 218 228 222 229 239 241 246 265 249 236 287 193 143 137 129 105 110 112 111 108 108 107 117 114 106 102 111 113 94 92 100 93 1 325 319
328 265 253 254 257 259 255 258 204 207 200 186 192 200 164 189 217 220 220 223 230 230 241 235 249 246 257 272 275 275 26 31 68 99 94 102 109 112 110 100 102 102 104 105 100 89 90 92 90 94 84 58 29 338
251 256 247 249 250 242 244 223 196 198 195 192 193 178 178 170 201 211 223 229 234 251 240 223 238 261 272 296 320 327 355 29 59 94 98 103 98 99 97 93 108 99 94 97 86 95 77 80 82 66 55 37 10 348
249 248 241 243 243 237 238 203 204 207 202 191 178 189 164 168 205 216 224 236 235 247 232 235 244 251 273 304 335 332 317 343 25 78 96 85 68 92 88 92 88 86 82 79 70 74 68 62 60 39 25 11 5 358
247 240 240 238 235 229 223 204 203 196 179 190 177 177 175 206 218 231 228 224 226 240 239 235 242 244 257 274 285 300 309 349 32 58 81 83 81 71 84 87 79 83 71 64 63 58 49 50 44 34 26 17 9 1
237 235 236 234 226 223 225 203 199 191 184 181 165 171 161 188 222 247 231 222 229 242 247 246 247 243 247 266 325 296 2 3 12 54 53 71 64 66 87 96 78 76 63 59 58 51 48 41 34 23 19 13 10 6
232 230 230 229 224 223 221 204 188 186 188 170 159 180 215 222 225 230 229 232 240 245 247 254 241 254 253 298 332 347 356 27 32 36 48 52 61 68 83 80 93 80 58 57 48 37 33 29 21 17 13 12 8 4
226 228 230 232 227 222 229 198 181 180 173 159 193 213 213 217 231 232 233 231 235 244 249 261 247 276 282 303 332 18 5 26 31 33 33 40 39 98 67 60 75 73 54 42 28 21 21 15 16 16 14 13 11 5
225 226 228 231 228 223 201 182 181 172 183 208 216 221 218 229 232 238 230 232 239 247 257 269 265 333 284 306 343 7 20 22 21 31 28 23 25 43 62 81 65 51 39 29 23 17 16 15 13 9 7 6 3 359
227 224 229 234 223 189 178 174 173 197 208 213 208 209 222 229 235 239 238 242 251 251 260 263 265 280 292 304 330 3 358 6 13 26 15 11 24 40 67 80 58 41 28 19 16 16 13 8 5 1 358 356 355 353
222 219 220 217 184 177 175 171 192 195 175 204 220 222 225 231 227 229 233 241 250 253 259 248 254 289 301 318 338 349 357 1 20 3 1 6 23 50 68 65 50 32 19 12 10 7 2 0 360 356 354 352 350 349
214 211 210 202 183 179 175 187 182 201 210 220 222 217 224 230 234 237 238 247 253 270 110 138 300 311 321 330 351 350 353 5 353 349 353 6 52 70 66 50 31 21 12 4 360 359 357 354 351 349 349 350 349 347
209 209 207 202 189 181 185 184 201 215 212 221 228 229 229 240 242 235 239 238 246 134 116 325 310 320 326 344 351 357 359 353 360 357 5 19 41 58 47 32 19 12 2 356 355 354 352 350 349 346 346 346 345 346
207 205 212 195 187 183 187 197 212 215 219 230 240 236 235 239 239 234 232 222 228 184 263 291 309 319 319 346 347 352 354 345 351 357 7 24 35 33 21 14 9 359 353 349 349 348 346 346 346 345 345 344 343 344
203 208 203 185 183 184 190 204 212 219 223 233 234 244 239 239 243 231 225 233 211 220 281 305 316 315 349 332 325 338 334 346 356 1 15 24 17 11 7 1 353 349 346 344 343 342 341 344 345 343 342 345 344 345
206 202 182 177 178 189 206 213 218 223 225 230 229 234 240 240 229 232 233 219 232 252 280 297 324 319 320 319 324 348 356 4 12 5 11 14 12 4 356 349 347 345 342 341 340 339 340 340 340 341 342 345 346 347
198 190 179 180 189 199 212 215 222 222 224 224 223 232 237 236 233 235 218 226 252 271 295 303 314 319 320 326 334 348 357 1 358 353 355 0 355 347 344 344 344 343 342 340 339 337 337 337 336 338 340 343 343 347
193 182 180 186 192 209 215 220 221 221 219 221 224 228 236 238 235 232 222 248 265 275 291 300 309 317 325 338 349 1 7 4 357 346 342 342 343 344 342 342 342 342 342 340 339 338 336 335 336 338 339 340 341 344
186 185 179 190 204 215 222 218 217 221 216 222 219 228 237 238 237 236 237 262 268 277 287 300 308 315 325 345 359 6 3 354 347 342 340 338 343 342 343 345 346 347 345 343 340 339 338 336 335 336 336 337 340 342
183 181 191 201 207 217 223 225 216 216 224 218 223 233 236 241 246 251 255 268 279 284 288 299 306 319 333 339 342 344 345 345 343 343 345 344 344 345 346 348 348 348 348 345 343 340 337 336 336 336 334 332 337 338
180 188 198 205 211 219 216 216 218 222 221 216 225 233 242 247 255 254 265 276 282 287 292 297 304 313 322 331 335 338 340 343 344 348 348 346 347 347 347 347 348 346 345 345 344 340 338 338 336 334 332 330 329 329
183 197 204 208 215 217 212 218 220 219 218 222 230 235 242 247 251 265 274 282 286 294 295 300 310 317 323 329 333 339 350 353 351 348 347 345 343 343 345 345 346 346 345 342 342 341 340 338 338 335 332 327 323 319
194 204 211 210 215 212 214 214 217 221 220 226 232 238 244 255 260 270 281 286 285 288 302 314 319 323 329 338 345 354 357 354 348 343 343 343 342 342 342 344 344 343 343 340 338 337 337 337 337 336 332 324 316 314
202 211 211 211 210 212 214 215 220 218 218 230 240 245 256 259 263 275 278 283 290 295 301 321 340 342 350 354 355 352 350 349 345 340 341 344 342 339 338 337 337 337 341 339 337 335 334 335 335 335 334 332 325 317
208 210 214 217 212 210 214 218 216 219 227 240 237 244 254 263 267 280 286 294 304 318 339 12 11 360 360 355 350 347 345 344 342 341 341 340 339 339 337 335 334 335 335 334 333 332 331 331 330 330 329 328 325 322
213 213 207 208 212 214 213 216 226 230 239 244 235 249 251 265 278 282 290 306 340 22 28 15 5 1 354 348 345 344 343 341 341 343 344 343 343 342 340 338 336 334 334 333 333 333 332 331 330 330 328 325 322 318
213 208 207 205 212 219 224 228 236 243 244 230 249 253 267 286 290 297 319 350 16 24 15 2 349 346 345 344 343 343 341 339 336 333 332 333 335 335 337 334 333 332 332 331 331 331 331 331 330 329 329 328 326 323
209 216 217 218 223 229 236 243 241 242 245 258 268 260 279 293 306 314 336 354 2 356 345 340 339 337 336 336 336 338 341 341 341 339 336 335 334 333 333 332 332 332 332 331 330 331 331 330 328 326 323 321 319 318
221 223 222 229 229 232 230 227 224 241 258 263 272 257 272 300 315 321 327 329 335 336 332 332 335 340 341 340 338 337 338 342 342 340 338 336 335 334 334 333 333 333 333 333 333 331 330 328 326 324 322 319 315 312
230 228 217 213 212 215 222 233 246 244 258 262 277 294 303 309 308 316 314 320 325 330 336 344 344 342 345 344 344 343 342 341 340 340 339 338 337 337 337 338 339 337 336 335 334 332 330 329 327 324 320 316 312 308
207 197 186 193 212 229 240 246 262 268 283 286 295 304 309 309 310 318 317 324 334 342 350 350 348 347 345 345 345 345 345 345 343 343 342 342 342 344 346 346 347 346 344 344 343 344 345 344 342 337 331 326 320 316